Weather History for KP92 - November, 2013

Change the Weather History Date:

Sunday, November 3, 2013

  Actual Average Record
Temperature  
Mean Temperature 60 °F -  
Max Temperature 70 °F 72 °F 84 °F (2001)
Min Temperature 50 °F 56 °F 41 °F (1999)
Degree Days  
Heating Degree Days 6    
Growing Degree Days 10 (Base 50)    
Moisture  
Dew Point 47 °F    
Average Humidity 67    
Maximum Humidity 84    
Minimum Humidity 39    
Precipitation  
Precipitation 0.00 in - - ()
Sea Level Pressure  
Sea Level Pressure 30.17 in    
Wind  
Wind Speed 2 mph (ESE)    
Max Wind Speed 8 mph    
Max Gust Speed -    
Averages and records for this station are not official NWS values.
T = Trace of Precipitation, MM = Missing Value Source: NWS Daily Summary

Daily Weather History Graph

Daily Weather History Graph

Search for Another Location

Airport or City:

Trip Planner

Search our weather history database for the weather conditions in past years. The results will help you decide how hot, cold, wet, or windy it might be!

Date:

Astronomy

Nov. 03, 2013 Rise Set
Actual Time 6:21 AM CST 5:17 PM CST
Civil Twilight 5:56 AM CST 5:42 PM CST
Nautical Twilight 5:28 AM CST 6:10 PM CST
Astronomical Twilight 5:00 AM CST 6:38 PM CST
Moon 6:24 AM CST 5:35 PM CST
Length of Visible Light 11h 46m
Length of Day
10h 56m
New Moon, 0% of the Moon is Illuminated
Nov 3
New Moon
Nov 9
First Quarter
Nov 17
Full
Nov 25
Last Quarter
Dec 2
New

Hourly Weather History & Observations

Time (CST) Temp. Dew Point Humidity Pressure Visibility Wind Dir Wind Speed Gust Speed Precip Events Conditions
12:53 AM 55.9 °F 48.9 °F 77% 30.18 in - Calm Calm - N/A   Unknown
1:53 AM 55.0 °F 48.0 °F 77% 30.18 in - Variable 3.5 mph - N/A   Unknown
1:53 AM 54.0 °F 48.0 °F 80% 30.17 in - Variable 3.5 mph - N/A   Unknown
2:53 AM 53.1 °F 46.9 °F 80% 30.17 in - Calm Calm - N/A   Unknown
3:53 AM 52.0 °F 46.0 °F 80% 30.18 in - Calm Calm - N/A   Unknown
4:53 AM 51.1 °F 46.0 °F 83% 30.19 in - Calm Calm - N/A   Unknown
5:53 AM 50.0 °F 45.0 °F 83% 30.20 in - Calm Calm - N/A   Unknown
6:53 AM 50.0 °F 45.0 °F 83% 30.20 in - Calm Calm - N/A   Unknown
7:53 AM 55.0 °F 46.0 °F 72% 30.22 in - Variable 3.5 mph - N/A   Unknown
8:53 AM 60.1 °F 48.0 °F 64% 30.22 in - Variable 3.5 mph - N/A   Unknown
9:53 AM 62.1 °F 45.0 °F 53% 30.22 in - ESE 8.1 mph - N/A   Unknown
10:53 AM 64.9 °F 46.0 °F 50% 30.21 in - SE 6.9 mph - N/A   Unknown
11:53 AM 66.9 °F 46.0 °F 47% 30.18 in - SE 5.8 mph - N/A   Unknown
12:53 PM 68.0 °F 45.0 °F 43% 30.15 in - Calm Calm - N/A   Unknown
1:53 PM 69.1 °F 45.0 °F 42% 30.12 in - Variable 5.8 mph - N/A   Unknown
2:53 PM 69.1 °F 43.0 °F 39% 30.12 in - Variable 3.5 mph - N/A   Unknown
3:53 PM 69.1 °F 46.0 °F 44% 30.11 in - Variable 3.5 mph - N/A   Unknown
4:53 PM 66.9 °F 50.0 °F 54% 30.13 in - Calm Calm - N/A   Unknown
5:53 PM 63.0 °F 52.0 °F 67% 30.14 in - Calm Calm - N/A   Unknown
6:53 PM 60.1 °F 52.0 °F 75% 30.17 in - Calm Calm - N/A   Unknown
7:53 PM 59.0 °F 52.0 °F 78% 30.18 in - ESE 3.5 mph - N/A   Unknown
8:53 PM 59.0 °F 50.0 °F 72% 30.19 in - ESE 3.5 mph - N/A   Unknown
9:53 PM 57.9 °F 48.9 °F 72% 30.17 in - Calm Calm - N/A   Unknown
10:53 PM 55.9 °F 51.1 °F 84% 30.17 in - Calm Calm - N/A   Unknown